Flag for U.S.A. Weather past 2 weeks in Hayward, California, U.S.A.

Now
77 °F

Sunny.


Feels Like: 78 °F
Forecast: 61 / 77 °F
Wind: 8 mph from Northwest

Location: Hayward Air Terminal

Current Time: Aug 31, 2015 at 1:16:29 PM

Latest Report: Aug 31, 2015 at 12:54 PM


Visibility: 10 mi

Pressure: 29.94 "Hg

Humidity: 47%

Dew point: 55 °F

Location of HaywardLocation

Historic Weather in Hayward — Graph

°F

Hayward temperature yesterday

Maximum temperature yesterday: 75 °F (at 2:54 PM)
Minimum temperature yesterday: 64 °F (at 2:54 AM)
Average temperature yesterday: 68 °F

Past Weeks' High & Low Weather Summary

 TemperatureHumidityPressure
High94 °F (Aug 16, 3:54 PM)93% (Aug 29, 7:54 AM)30.09 "Hg (Aug 29, 7:54 AM)
Low59 °F (Aug 25, 10:54 PM)25% (Aug 16, 1:54 PM)29.82 "Hg (Aug 16, 4:54 PM)
Average68 °F70%29.96 "Hg
* Reported Aug 16 11:54 AM — Aug 31 11:54 AM, Hayward, Weather by CustomWeather, © 2015

Note: Actual official high and low records may vary slightly from our data, if they occured in-between our weather recording intervals... More about our weather records

Advertising

Hayward weather history for previous 24 hours

 ConditionsComfort  
Time TempWeatherWind HumidityBarometerVisibility
11:54 AM
Mon, Aug 31
74 °FSunny.6 mph50%29.96 "Hg10 mi
10:54 AM71 °FSunny.No wind63%29.97 "Hg9 mi
9:54 AM69 °FSunny.No wind68%29.97 "Hg8 mi
8:54 AM66 °FPassing clouds.No wind75%29.97 "Hg7 mi
7:54 AM63 °FPassing clouds.3 mph78%29.97 "Hg8 mi
6:54 AM60 °FClear.3 mph83%29.95 "Hg8 mi
5:54 AM60 °FClear.No wind83%29.95 "Hg9 mi
4:54 AM61 °FClear.5 mph83%29.95 "Hg9 mi
3:54 AM62 °FClear.No wind83%29.94 "Hg8 mi
2:54 AM63 °FClear.5 mph81%29.94 "Hg8 mi
1:54 AM63 °FClear.3 mph81%29.95 "Hg9 mi
12:54 AM63 °FClear.3 mph78%29.96 "Hg10 mi
11:54 PM
Sun, Aug 30
65 °FClear.No wind76%29.96 "Hg10 mi
10:54 PM66 °FClear.5 mph75%29.97 "Hg10 mi
9:54 PM66 °FClear.6 mph81%29.98 "Hg9 mi
8:54 PM67 °FClear.8 mph81%29.98 "Hg9 mi
7:54 PM67 °FSunny.10 mph79%29.97 "Hg9 mi
6:54 PM69 °FSunny.10 mph76%29.98 "Hg10 mi
5:54 PM71 °FSunny.14 mph71%29.99 "Hg10 mi
4:54 PM72 °FSunny.17 mph68%30.00 "Hg10 mi
3:54 PM73 °FSunny.14 mph64%30.02 "Hg10 mi
2:54 PM75 °FSunny.18 mph58%30.04 "Hg10 mi
1:54 PM73 °FSunny.15 mph59%30.05 "Hg10 mi
Weather by CustomWeather, © 2015

See weather overviewHow to use our weather pages